Location: Bletchingley
(51.2333°N, 0.1000°W)
Time: 16:35:26
(UTC+00:00)

Cosmos 2082 Rocket - Pass Details

Date: 18 September 2020
Orbit: 834 x 853 km, 71.0° (Epoch: 30 October)

Event Time Altitude Azimuth Distance (km) Brightness Sun altitude
Rises 20:38:07 0° 331° (NNW) 3,394 6.4 -23.0°
Reaches altitude 10° 20:40:47 10° 340° (NNW) 2,456 5.3 -23.3°
Maximum altitude 20:45:56 36° 47° (NE) 1,312 3.1 -24.0°
Enters shadow 20:46:38 34° 63° (ENE) 1,341 3.0 -24.1°
